GW5357 Weather Reports


Display with metric or nautical units.
time (UTC)temp
F
wind
direction
speed
MPH
gust
MPH
rain 1hr
in
rain 24hr
in
rain mn
in
humidity
%
barometer
mb
20260906101003 49 331 0.0 2.0 0.00 0.00 0.00 92 1016.9
20260906100501 50 269 1.0 2.0 0.00 0.00 0.00 92 1016.9
20260906100003 50 314 0.0 2.0 0.00 0.00 0.00 92 1016.9
20260906095501 50 344 1.0 2.0 0.00 0.00 0.00 92 1016.9
20260906095003 50 269 1.0 2.0 0.00 0.00 0.00 92 1016.9
20260906094504 50 331 2.0 2.0 0.00 0.00 0.00 92 1016.9
20260906094004 50 336 1.0 2.0 0.00 0.00 0.00 91 1016.9
20260906093501 50 321 1.0 2.0 0.00 0.00 0.00 91 1016.9
20260906093004 50 152 1.0 2.0 0.00 0.00 0.00 92 1016.9
20260906091503 51 161 0.0 2.0 0.00 0.00 0.00 91 1016.9
20260906091002 51 344 0.0 2.0 0.00 0.00 0.00 91 1017.0
20260906090503 51 314 1.0 2.0 0.00 0.00 0.00 91 1017.0
20260906090004 51 331 1.0 2.0 0.00 0.00 0.00 91 1017.1
20260906085502 51 295 0.0 2.0 0.00 0.00 0.00 90 1017.1
20260906085003 51 331 1.0 2.0 0.00 0.00 0.00 91 1017.2
20260906083501 52 314 0.0 2.0 0.00 0.00 0.00 91 1017.2
20260906083003 52 108 1.0 1.0 0.00 0.00 0.00 90 1017.2
20260906082503 52 269 0.0 1.0 0.00 0.00 0.00 90 1017.0
20260906081503 52 1 1.0 2.0 0.00 0.00 0.00 90 1017.1
20260906081002 52 295 2.0 2.0 0.00 0.00 0.00 90 1017.1
20260906080503 52 336 1.0 2.0 0.00 0.00 0.00 90 1017.1
20260906075502 52 324 2.0 3.0 0.00 0.00 0.00 91 1017.2
20260906075000 52 340 1.0 2.0 0.00 0.00 0.00 90 1017.3
20260906074502 52 331 1.0 2.0 0.00 0.00 0.00 90 1017.2
20260906073500 52 331 1.0 2.0 0.00 0.00 0.00 90 1017.3
20260906073002 52 135 0.0 1.0 0.00 0.00 0.00 90 1017.4
20260906072501 53 331 0.0 1.0 0.00 0.00 0.00 90 1017.5
20260906072003 53 46 0.0 3.0 0.00 0.00 0.00 90 1017.4
20260906071502 53 314 1.0 3.0 0.00 0.00 0.00 90 1017.5
20260906071000 53 324 2.0 3.0 0.00 0.00 0.00 90 1017.5
20260906070500 53 344 1.0 3.0 0.00 0.00 0.00 90 1017.5
20260906065004 53 117 0.0 2.0 0.00 0.00 0.00 89 1017.3
20260906064505 53 331 1.0 2.0 0.00 0.00 0.00 89 1017.3
20260906064005 53 331 1.0 2.0 0.00 0.00 0.00 89 1017.3
20260906063506 53 331 1.0 2.0 0.00 0.00 0.00 89 1017.2
20260906062504 54 327 2.0 2.0 0.00 0.00 0.00 89 1017.1
20260906062004 54 340 0.0 2.0 0.00 0.00 0.00 88 1017.1
20260906061504 54 324 1.0 2.0 0.00 0.00 0.00 88 1017.1
20260906060504 54 340 1.0 2.0 0.00 0.00 0.00 88 1017.1
20260906060009 54 340 2.0 2.0 0.00 0.00 0.00 88 1017.1
20260906054505 55 46 0.0 2.0 0.00 0.00 0.00 87 1017.5
20260906054005 55 269 1.0 2.0 0.00 0.00 0.00 87 1017.4
20260906053504 55 314 1.0 2.0 0.00 0.00 0.00 87 1017.4
20260906053007 55 314 1.0 1.0 0.00 0.00 0.00 87 1017.5
20260906052004 55 340 1.0 1.0 0.00 0.00 0.00 86 1017.5
20260906051505 55 296 0.0 2.0 0.00 0.00 0.00 86 1017.5
20260906051004 56 314 1.0 2.0 0.00 0.00 0.00 86 1017.7
20260906050008 56 321 1.0 2.0 0.00 0.00 0.00 85 1017.6
20260906045503 56 89 0.0 2.0 0.00 0.00 0.00 85 1017.6
20260906045005 56 344 1.0 2.0 0.00 0.00 0.00 85 1017.7
20260906044505 56 340 2.0 2.0 0.00 0.00 0.00 85 1017.6
20260906044005 56 286 1.0 2.0 0.00 0.00 0.00 84 1017.8
20260906043505 56 303 1.0 2.0 0.00 0.00 0.00 85 1017.8
20260906043006 57 342 2.0 2.0 0.00 0.00 0.00 84 1017.7
20260906042504 57 331 0.0 1.0 0.00 0.00 0.00 84 1017.7
20260906042004 57 46 0.0 2.0 0.00 0.00 0.00 84 1017.6
20260906041005 57 336 1.0 2.0 0.00 0.00 0.00 83 1017.5
20260906040503 57 336 1.0 2.0 0.00 0.00 0.00 82 1017.6
20260906040008 58 314 1.0 2.0 0.00 0.00 0.00 82 1017.6
20260906035504 58 340 1.0 2.0 0.00 0.00 0.00 81 1017.6
20260906035004 58 314 1.0 2.0 0.00 0.00 0.00 80 1017.6
20260906034505 58 1 1.0 2.0 0.00 0.00 0.00 80 1017.6
20260906034005 59 344 1.0 2.0 0.00 0.00 0.00 80 1017.6
20260906033503 59 336 1.0 2.0 0.00 0.00 0.00 80 1017.6
20260906033007 59 331 1.0 2.0 0.00 0.00 0.00 79 1017.5
20260906032503 59 331 1.0 2.0 0.00 0.00 0.00 79 1017.6
20260906032006 60 324 1.0 2.0 0.00 0.00 0.00 77 1017.5
20260906031504 60 314 0.0 2.0 0.00 0.00 0.00 77 1017.5
20260906031004 61 324 1.0 2.0 0.00 0.00 0.00 76 1017.5
20260906030007 62 314 0.0 2.0 0.00 0.00 0.00 74 1017.4
20260906025503 62 324 1.0 1.0 0.00 0.00 0.00 73 1017.4
20260906025004 62 1 0.0 1.0 0.00 0.00 0.00 73 1017.4
20260906024503 63 135 0.0 2.0 0.00 0.00 0.00 72 1017.4
20260906024003 63 1 1.0 2.0 0.00 0.00 0.00 71 1017.3
20260906023504 63 314 1.0 2.0 0.00 0.00 0.00 70 1017.4
20260906023004 64 296 1.0 2.0 0.00 0.00 0.00 69 1017.4
20260906022003 64 1 1.0 2.0 0.00 0.00 0.00 68 1017.5
20260906021505 64 135 1.0 2.0 0.00 0.00 0.00 69 1017.4
20260906021004 64 89 0.0 2.0 0.00 0.00 0.00 69 1017.4
20260906015502 65 324 1.0 2.0 0.00 0.00 0.00 68 1017.3
20260906015005 65 28 1.0 2.0 0.00 0.00 0.00 66 1017.3
20260906014505 65 1 0.0 2.0 0.00 0.00 0.00 65 1017.3
20260906014004 65 269 0.0 2.0 0.00 0.00 0.00 65 1017.3
20260906013503 65 46 1.0 4.0 0.00 0.00 0.00 65 1017.2
20260906013004 65 206 2.0 4.0 0.00 0.00 0.00 64 1017.1
20260906012503 65 223 1.0 3.0 0.00 0.00 0.00 64 1017.2
20260906012003 66 296 1.0 4.0 0.00 0.00 0.00 64 1017.1
20260906011504 66 303 1.0 4.0 0.00 0.00 0.00 64 1017.1
20260906011003 66 344 2.0 3.0 0.00 0.00 0.00 63 1017.1
20260906010504 66 269 1.0 4.0 0.00 0.00 0.00 63 1017.1
20260906010008 67 296 2.0 5.0 0.00 0.00 0.00 62 1017.1
20260906005003 68 210 1.0 4.0 0.00 0.00 0.00 62 1017.0
20260906004504 68 178 1.0 4.0 0.00 0.00 0.00 60 1017.1
20260906004004 68 223 1.0 4.0 0.00 0.00 0.00 62 1017.1
20260906003503 68 170 1.0 4.0 0.00 0.00 0.00 62 1017.0
20260906003004 68 108 2.0 4.0 0.00 0.00 0.00 62 1017.0
20260906002502 68 152 2.0 4.0 0.00 0.00 0.00 61 1017.1
20260906002005 68 161 2.0 4.0 0.00 0.00 0.00 61 1017.1
20260906001504 68 269 1.0 4.0 0.00 0.00 0.00 63 1017.2
20260906001003 67 135 2.0 5.0 0.00 0.00 0.00 64 1017.1
20260906000503 68 178 2.0 5.0 0.00 0.00 0.00 64 1017.2
20260906000005 68 173 2.0 4.0 0.00 0.00 0.00 64 1017.1
20260905235504 68 269 2.0 4.0 0.00 0.00 0.00 63 1017.1
20260905234503 67 314 2.0 4.0 0.00 0.00 0.00 64 1017.1
20260905234004 67 246 1.0 4.0 0.00 0.00 0.00 64 1017.1
20260905233504 67 117 2.0 5.0 0.00 0.00 0.00 65 1017.1
20260905233006 67 147 3.0 5.0 0.00 0.00 0.00 66 1017.0
20260905232503 67 145 2.0 4.0 0.00 0.00 0.00 69 1017.0
20260905232003 66 114 2.0 7.0 0.00 0.00 0.00 69 1017.1
20260905231004 67 223 2.0 6.0 0.00 0.00 0.00 70 1017.1
20260905230006 67 281 2.0 6.0 0.00 0.00 0.00 68 1017.1
20260905225504 67 46 2.0 5.0 0.00 0.00 0.00 67 1017.1
20260905224504 67 279 2.0 6.0 0.00 0.00 0.00 64 1017.1
20260905223504 67 286 2.0 6.0 0.00 0.00 0.00 64 1017.2
20260905223006 67 302 2.0 7.0 0.00 0.00 0.00 64 1017.3
20260905222504 68 311 3.0 6.0 0.00 0.00 0.00 63 1017.3
20260905222004 68 174 2.0 6.0 0.00 0.00 0.00 64 1017.3
20260905221505 68 145 2.0 6.0 0.00 0.00 0.00 63 1017.4
20260905221004 68 196 2.0 4.0 0.00 0.00 0.00 63 1017.4
20260905220503 68 178 1.0 5.0 0.00 0.00 0.00 64 1017.4
20260905220011 69 314 1.0 6.0 0.00 0.00 0.00 63 1017.5
20260905215503 69 135 2.0 7.0 0.00 0.00 0.00 62 1017.5
20260905215005 69 237 2.0 7.0 0.00 0.00 0.00 63 1017.5
20260905214504 69 197 3.0 7.0 0.00 0.00 0.00 62 1017.5
20260905214004 69 303 3.0 6.0 0.00 0.00 0.00 62 1017.5
20260905213504 69 269 2.0 6.0 0.00 0.00 0.00 63 1017.5
20260905213004 70 246 2.0 6.0 0.00 0.00 0.00 62 1017.4
20260905212503 70 234 1.0 7.0 0.00 0.00 0.00 62 1017.4
20260905211504 70 181 3.0 6.0 0.00 0.00 0.00 63 1017.6
20260905211004 70 135 3.0 6.0 0.00 0.00 0.00 63 1017.5
20260905210503 69 46 2.0 7.0 0.00 0.00 0.00 64 1017.6
20260905210006 70 187 2.0 6.0 0.00 0.00 0.00 63 1017.6
20260905205505 70 206 2.0 7.0 0.00 0.00 0.00 64 1017.5
20260905205006 69 223 2.0 7.0 0.00 0.00 0.00 66 1017.6
20260905204004 68 115 3.0 6.0 0.00 0.00 0.00 69 1017.7
20260905203504 67 119 3.0 7.0 0.00 0.00 0.00 70 1017.7
20260905202003 67 208 5.0 8.0 0.00 0.00 0.00 70 1017.8
20260905201504 67 269 3.0 7.0 0.00 0.00 0.00 71 1017.8
20260905201004 67 213 3.0 9.0 0.00 0.00 0.00 71 1017.8
20260905200503 67 206 3.0 9.0 0.00 0.00 0.00 71 1017.8
20260905200008 66 290 2.0 7.0 0.00 0.00 0.00 72 1017.8
20260905195503 66 107 3.0 7.0 0.00 0.00 0.00 72 1017.8
20260905195004 67 206 1.0 6.0 0.00 0.00 0.00 71 1017.9
20260905194505 66 32 3.0 8.0 0.00 0.00 0.00 72 1017.8
20260905194005 66 46 2.0 8.0 0.00 0.00 0.00 73 1017.8
20260905193503 66 161 3.0 8.0 0.00 0.00 0.00 72 1017.9
20260905193006 66 170 1.0 8.0 0.00 0.00 0.00 72 1017.9
20260905192003 65 178 2.0 6.0 0.00 0.00 0.00 75 1017.9
20260905191505 66 269 3.0 5.0 0.00 0.00 0.00 74 1018.0
20260905191004 65 135 2.0 7.0 0.00 0.00 0.00 76 1017.9
20260905190504 65 79 2.0 7.0 0.00 0.00 0.00 75 1018.0
20260905190008 64 269 2.0 8.0 0.00 0.00 0.00 75 1018.0
20260905185502 65 223 3.0 8.0 0.00 0.00 0.00 75 1018.1
20260905185003 65 190 3.0 6.0 0.00 0.00 0.00 74 1018.1
20260905184503 65 117 2.0 5.0 0.00 0.00 0.00 75 1018.1
20260905184003 65 285 2.0 5.0 0.00 0.00 0.00 75 1018.0
20260905183503 64 145 2.0 5.0 0.00 0.00 0.00 77 1018.1
20260905183004 63 303 2.0 5.0 0.00 0.00 0.00 77 1018.2
20260905182002 64 269 2.0 6.0 0.00 0.00 0.00 77 1018.3
20260905181503 63 1 1.0 6.0 0.00 0.00 0.00 78 1018.4
20260905181003 63 188 2.0 6.0 0.00 0.00 0.00 78 1018.4
20260905180007 63 46 2.0 5.0 0.00 0.00 0.00 79 1018.3
20260905174503 62 290 2.0 5.0 0.00 0.00 0.00 79 1018.3
20260905174003 62 214 2.0 5.0 0.00 0.00 0.00 79 1018.3
20260905173503 62 130 2.0 6.0 0.00 0.00 0.00 80 1018.2
20260905172503 62 157 3.0 6.0 0.00 0.00 0.00 80 1018.1
20260905172003 62 318 2.0 4.0 0.00 0.00 0.00 82 1018.2
20260905171504 61 132 2.0 4.0 0.00 0.00 0.00 84 1018.2
20260905171003 60 185 2.0 4.0 0.00 0.00 0.00 85 1018.2
20260905170502 59 283 1.0 3.0 0.00 0.00 0.00 85 1018.3
20260905165502 59 314 1.0 3.0 0.00 0.00 0.00 86 1018.3
20260905164503 59 89 2.0 4.0 0.00 0.00 0.00 86 1018.2
20260905164004 59 28 1.0 3.0 0.00 0.00 0.00 87 1018.1
20260905163502 58 303 1.0 3.0 0.00 0.00 0.00 87 1018.1
20260905163003 58 331 2.0 4.0 0.00 0.00 0.00 87 1018.3
20260905162503 58 269 2.0 4.0 0.00 0.00 0.00 87 1018.3
20260905162003 58 223 1.0 2.0 0.00 0.00 0.00 89 1018.2
20260905161503 58 269 1.0 4.0 0.00 0.00 0.00 90 1018.3
20260905161002 58 269 2.0 4.0 0.00 0.00 0.00 90 1018.3
20260905160503 58 314 1.0 4.0 0.00 0.00 0.00 90 1018.4
20260905155502 58 283 2.0 3.0 0.00 0.00 0.00 90 1018.2
20260905154504 57 131 1.0 3.0 0.00 0.00 0.00 91 1018.2
20260905154003 57 156 1.0 3.0 0.00 0.00 0.00 92 1018.1
20260905153502 57 135 1.0 3.0 0.00 0.00 0.00 92 1018.0
20260905153003 57 296 1.0 2.0 0.00 0.00 0.00 93 1017.9
20260905152502 57 269 1.0 3.0 0.00 0.00 0.00 93 1017.9
20260905152004 57 213 1.0 3.0 0.00 0.00 0.00 93 1018.0
20260905151504 57 142 2.0 3.0 0.00 0.00 0.00 93 1018.0
20260905151002 56 135 1.0 3.0 0.00 0.00 0.00 93 1018.0
20260905150503 56 241 2.0 3.0 0.00 0.00 0.00 94 1018.0
20260905150003 56 300 1.0 2.0 0.00 0.00 0.00 94 1018.0
20260905145504 56 283 1.0 2.0 0.00 0.00 0.00 94 1018.1
20260905145003 55 1 0.0 1.0 0.00 0.00 0.00 94 1018.1
20260905144504 55 269 0.0 2.0 0.00 0.00 0.00 94 1018.2
20260905144003 55 206 0.0 2.0 0.00 0.00 0.00 94 1018.2
20260905143503 54 314 1.0 2.0 0.00 0.00 0.00 94 1018.1
20260905143005 54 1 1.0 2.0 0.00 0.00 0.00 94 1018.2
20260905142003 54 331 1.0 2.0 0.00 0.00 0.00 93 1018.0
20260905141504 54 331 1.0 2.0 0.00 0.00 0.00 93 1018.0
20260905141003 54 314 1.0 2.0 0.00 0.00 0.00 93 1017.9
20260905140502 54 321 1.0 2.0 0.00 0.00 0.00 93 1017.8
20260905135003 54 324 1.0 2.0 0.00 0.00 0.00 93 1017.8
20260905134502 54 1 1.0 2.0 0.00 0.00 0.00 93 1017.8
20260905134003 54 135 1.0 2.0 0.00 0.00 0.00 93 1017.8
20260905133003 54 161 1.0 2.0 0.00 0.00 0.00 93 1017.7
20260905132502 54 46 1.0 2.0 0.00 0.00 0.00 93 1017.7
20260905132003 54 223 0.0 2.0 0.00 0.00 0.00 93 1017.6
20260905131503 54 20 1.0 2.0 0.00 0.00 0.00 93 1017.7
20260905130503 54 46 1.0 2.0 0.00 0.00 0.00 93 1017.6
20260905130002 54 314 1.0 2.0 0.00 0.00 0.00 93 1017.6
20260905124502 54 286 0.0 2.0 0.00 0.00 0.00 93 1017.6
20260905124002 54 319 1.0 2.0 0.00 0.00 0.00 94 1017.6
20260905123502 54 20 1.0 2.0 0.00 0.00 0.00 94 1017.6
20260905123003 54 46 0.0 1.0 0.00 0.00 0.00 94 1017.5
20260905122502 54 269 0.0 1.0 0.00 0.00 0.00 94 1017.5
20260905121502 53 152 0.0 1.0 0.00 0.00 0.00 93 1017.5
20260905121003 53 269 0.0 1.0 0.00 0.00 0.00 93 1017.5
20260905120502 53 46 0.0 2.0 0.00 0.00 0.00 93 1017.4
20260905120004 53 324 1.0 2.0 0.00 0.00 0.00 93 1017.4
20260905115502 53 324 1.0 2.0 0.00 0.00 0.00 93 1017.4
20260905114505 53 344 1.0 2.0 0.00 0.00 0.00 93 1017.3
20260905114003 53 336 1.0 2.0 0.00 0.00 0.00 93 1017.4
20260905113503 53 340 1.0 2.0 0.00 0.00 0.00 93 1017.3
20260905113004 53 269 0.0 1.0 0.00 0.00 0.00 93 1017.3
20260905112503 53 1 0.0 2.0 0.00 0.00 0.00 93 1017.3
20260905112004 53 344 1.0 2.0 0.00 0.00 0.00 93 1017.4
20260905111003 53 1 1.0 2.0 0.00 0.00 0.00 93 1017.2
20260905110502 53 331 0.0 1.0 0.00 0.00 0.00 93 1017.1
20260905110003 53 314 0.0 2.0 0.00 0.00 0.00 93 1017.2
20260905105503 53 269 1.0 2.0 0.00 0.00 0.00 93 1017.1
20260905105002 53 321 1.0 2.0 0.00 0.00 0.00 93 1017.1
20260905104503 53 1 1.0 2.0 0.00 0.00 0.00 93 1017.0
20260905104003 53 89 1.0 2.0 0.00 0.00 0.00 93 1017.0
20260905103502 53 46 0.0 1.0 0.00 0.00 0.00 93 1017.1
20260905103003 53 135 0.0 1.0 0.00 0.00 0.00 93 1017.0
20260905102503 53 46 0.0 1.0 0.00 0.00 0.00 93 1017.1
20260905101503 53 314 0.0 2.0 0.00 0.00 0.00 93 1017.1